Time,TemperatureF,DewpointF,PressureIn,WindDirection,WindDirectionDegrees,WindSpeedMPH,WindSpeedGustMPH,Humidity,HourlyPrecipIn,Conditions,Clouds,dailyrainin,SolarRadiationWatts/m^2,SoftwareType,DateUTC
2013-05-15 00:03:00,36.0,31.0,-100.00,NW,305,1.0,3.0,82,0.00,,,0.00,0.000000,,2013-05-15 04:03:00,
2013-05-15 00:33:00,34.0,30.0,-100.00,West,264,2.0,3.0,86,0.00,,,0.00,0.000000,,2013-05-15 04:33:00,
2013-05-15 00:43:00,34.0,30.0,-100.00,West,264,2.0,3.0,86,0.00,,,0.00,0.000000,,2013-05-15 04:43:00,
2013-05-15 00:52:00,34.0,30.0,-100.00,West,264,2.0,3.0,86,0.00,,,0.00,0.000000,,2013-05-15 04:52:00,
2013-05-15 01:02:00,34.0,30.0,-100.00,West,264,2.0,3.0,86,0.00,,,0.00,0.000000,,2013-05-15 05:02:00,
2013-05-15 01:32:00,33.0,29.0,-100.00,SW,223,2.0,3.0,85,0.00,,,0.00,0.000000,,2013-05-15 05:32:00,
2013-05-15 01:42:00,33.0,29.0,-100.00,SW,223,2.0,3.0,85,0.00,,,0.00,0.000000,,2013-05-15 05:42:00,
2013-05-15 01:52:00,33.0,29.0,-100.00,SW,223,2.0,3.0,85,0.00,,,0.00,0.000000,,2013-05-15 05:52:00,
2013-05-15 02:02:00,33.0,29.0,-100.00,SW,223,2.0,3.0,85,0.00,,,0.00,0.000000,,2013-05-15 06:02:00,
2013-05-15 02:32:00,31.0,28.0,-100.00,SW,235,1.0,3.0,90,0.00,,,0.00,0.000000,,2013-05-15 06:32:00,
2013-05-15 02:42:00,31.0,28.0,-100.00,SW,235,1.0,3.0,90,0.00,,,0.00,0.000000,,2013-05-15 06:42:00,
2013-05-15 02:52:00,31.0,28.0,-100.00,SW,235,1.0,3.0,90,0.00,,,0.00,0.000000,,2013-05-15 06:52:00,
2013-05-15 03:01:00,31.0,28.0,-100.00,SW,235,1.0,3.0,90,0.00,,,0.00,0.000000,,2013-05-15 07:01:00,
2013-05-15 03:32:00,30.0,28.0,-100.00,SW,228,2.0,3.0,91,0.00,,,0.00,0.000000,,2013-05-15 07:32:00,
2013-05-15 03:42:00,30.0,28.0,-100.00,SW,228,2.0,3.0,91,0.00,,,0.00,0.000000,,2013-05-15 07:42:00,
2013-05-15 03:52:00,30.0,28.0,-100.00,SW,228,2.0,3.0,91,0.00,,,0.00,0.000000,,2013-05-15 07:52:00,
2013-05-15 04:02:00,30.0,28.0,-100.00,SW,228,2.0,3.0,91,0.00,,,0.00,0.000000,,2013-05-15 08:02:00,
2013-05-15 04:32:00,29.0,27.0,-100.00,WNW,297,1.0,3.0,93,0.00,,,0.00,0.000000,,2013-05-15 08:32:00,
2013-05-15 04:42:00,29.0,27.0,-100.00,WNW,297,1.0,3.0,93,0.00,,,0.00,0.000000,,2013-05-15 08:42:00,
2013-05-15 04:53:00,29.0,27.0,-100.00,WNW,297,1.0,3.0,93,0.00,,,0.00,0.000000,,2013-05-15 08:53:00,
2013-05-15 05:01:00,29.0,27.0,-100.00,WNW,297,1.0,3.0,93,0.00,,,0.00,0.000000,,2013-05-15 09:01:00,
2013-05-15 05:33:00,28.0,27.0,-100.00,WSW,256,0.0,3.0,95,0.00,,,0.00,0.000000,,2013-05-15 09:33:00,
2013-05-15 05:42:00,28.0,27.0,-100.00,WSW,256,0.0,3.0,95,0.00,,,0.00,0.000000,,2013-05-15 09:42:00,
2013-05-15 05:53:00,28.0,27.0,-100.00,WSW,256,0.0,3.0,95,0.00,,,0.00,0.000000,,2013-05-15 09:53:00,
2013-05-15 06:02:00,28.0,27.0,-100.00,WSW,256,0.0,3.0,95,0.00,,,0.00,0.000000,,2013-05-15 10:02:00,
2013-05-15 06:07:00,28.0,27.0,-100.00,West,260,1.0,2.0,96,0.00,,,0.00,10.000000,,2013-05-15 10:07:00,
2013-05-15 06:32:00,28.0,27.0,-100.00,West,260,1.0,2.0,96,0.00,,,0.00,10.000000,,2013-05-15 10:32:00,
2013-05-15 06:43:00,28.0,27.0,-100.00,West,260,1.0,2.0,96,0.00,,,0.00,10.000000,,2013-05-15 10:43:00,
2013-05-15 06:53:00,28.0,27.0,-100.00,West,260,1.0,2.0,96,0.00,,,0.00,10.000000,,2013-05-15 10:53:00,
2013-05-15 07:39:00,34.0,30.0,-100.00,SSE,168,1.0,2.0,86,0.00,,,0.00,89.000000,,2013-05-15 11:39:00,
2013-05-15 07:50:00,34.0,30.0,-100.00,SSE,168,1.0,2.0,86,0.00,,,0.00,89.000000,,2013-05-15 11:50:00,
2013-05-15 08:01:00,34.0,30.0,-100.00,SSE,168,1.0,2.0,86,0.00,,,0.00,89.000000,,2013-05-15 12:01:00,
2013-05-15 08:07:00,46.0,29.0,-100.00,ENE,59,2.0,3.0,51,0.00,,,0.00,326.000000,,2013-05-15 12:07:00,
2013-05-15 08:38:00,46.0,29.0,-100.00,ENE,59,2.0,3.0,51,0.00,,,0.00,326.000000,,2013-05-15 12:38:00,
2013-05-15 08:49:00,46.0,29.0,-100.00,ENE,59,2.0,3.0,51,0.00,,,0.00,326.000000,,2013-05-15 12:49:00,
2013-05-15 08:57:00,46.0,29.0,-100.00,ENE,59,2.0,3.0,51,0.00,,,0.00,326.000000,,2013-05-15 12:57:00,
2013-05-15 10:07:00,59.0,25.0,-100.00,SSW,211,6.0,15.0,27,-99.99,,,-99.99,676.000000,,2013-05-15 14:07:00,
2013-05-15 10:39:00,59.0,25.0,-100.00,SSW,211,6.0,15.0,27,-99.99,,,-99.99,676.000000,,2013-05-15 14:39:00,
2013-05-15 10:52:00,59.0,25.0,-100.00,SSW,211,6.0,15.0,27,-99.99,,,-99.99,676.000000,,2013-05-15 14:52:00,
2013-05-15 10:59:00,59.0,25.0,-100.00,SSW,211,6.0,15.0,27,-99.99,,,-99.99,676.000000,,2013-05-15 14:59:00,
2013-05-15 11:07:00,61.0,22.0,-100.00,SW,221,7.0,14.0,22,0.00,,,-99.99,804.000000,,2013-05-15 15:07:00,
2013-05-15 11:40:00,61.0,22.0,-100.00,SW,221,7.0,14.0,22,0.00,,,-99.99,804.000000,,2013-05-15 15:40:00,
2013-05-15 12:02:00,61.0,22.0,-100.00,SW,221,7.0,14.0,22,0.00,,,-99.99,804.000000,,2013-05-15 16:02:00,
2013-05-15 12:07:00,62.0,24.0,-100.00,SW,223,6.0,13.0,23,0.00,,,0.00,789.000000,,2013-05-15 16:07:00,
2013-05-15 12:40:00,62.0,24.0,-100.00,SW,223,6.0,13.0,23,0.00,,,0.00,789.000000,,2013-05-15 16:40:00,
2013-05-15 13:01:00,62.0,24.0,-100.00,SW,223,6.0,13.0,23,0.00,,,0.00,789.000000,,2013-05-15 17:01:00,
2013-05-15 14:07:00,67.0,29.0,-100.00,SSW,208,6.0,18.0,24,-99.99,,,0.00,807.000000,,2013-05-15 18:07:00,
2013-05-15 14:38:00,67.0,29.0,-100.00,SSW,208,6.0,18.0,24,-99.99,,,0.00,807.000000,,2013-05-15 18:38:00,
2013-05-15 14:49:00,67.0,29.0,-100.00,SSW,208,6.0,18.0,24,-99.99,,,0.00,807.000000,,2013-05-15 18:49:00,
2013-05-15 14:58:00,67.0,29.0,-100.00,SSW,208,6.0,18.0,24,-99.99,,,0.00,807.000000,,2013-05-15 18:58:00,
2013-05-15 15:07:00,66.0,30.0,-100.00,SW,226,8.0,17.0,26,0.00,,,0.00,481.000000,,2013-05-15 19:07:00,
2013-05-15 15:39:00,66.0,30.0,-100.00,SW,226,8.0,17.0,26,0.00,,,0.00,481.000000,,2013-05-15 19:39:00,
2013-05-15 15:50:00,66.0,30.0,-100.00,SW,226,8.0,17.0,26,0.00,,,0.00,481.000000,,2013-05-15 19:50:00,
2013-05-15 15:58:00,66.0,30.0,-100.00,SW,226,8.0,17.0,26,0.00,,,0.00,481.000000,,2013-05-15 19:58:00,
2013-05-15 16:07:00,63.0,31.0,-100.00,SSW,208,5.0,16.0,30,0.00,,,0.00,218.000000,,2013-05-15 20:07:00,
2013-05-15 16:40:00,63.0,31.0,-100.00,SSW,208,5.0,16.0,30,0.00,,,0.00,218.000000,,2013-05-15 20:40:00,
2013-05-15 16:47:00,63.0,31.0,-100.00,SSW,208,5.0,16.0,30,0.00,,,0.00,218.000000,,2013-05-15 20:47:00,
2013-05-15 16:59:00,63.0,31.0,-100.00,SSW,208,5.0,16.0,30,0.00,,,0.00,218.000000,,2013-05-15 20:59:00,
2013-05-15 17:07:00,59.0,38.0,-100.00,SSW,206,6.0,14.0,46,0.00,,,-99.99,74.000000,,2013-05-15 21:07:00,
2013-05-15 17:42:00,59.0,38.0,-100.00,SSW,206,6.0,14.0,46,0.00,,,-99.99,74.000000,,2013-05-15 21:42:00,
2013-05-15 17:53:00,59.0,38.0,-100.00,SSW,206,6.0,14.0,46,0.00,,,-99.99,74.000000,,2013-05-15 21:53:00,
2013-05-15 18:01:00,59.0,38.0,-100.00,SSW,206,6.0,14.0,46,0.00,,,-99.99,74.000000,,2013-05-15 22:01:00,
2013-05-15 19:40:00,51.0,49.0,-100.00,SW,224,3.0,11.0,92,0.05,,,0.06,7.000000,,2013-05-15 23:40:00,
2013-05-15 19:50:00,51.0,49.0,-100.00,SW,224,3.0,11.0,92,0.05,,,0.06,7.000000,,2013-05-15 23:50:00,
2013-05-15 20:01:00,51.0,49.0,-100.00,SW,224,3.0,11.0,92,0.05,,,0.06,7.000000,,2013-05-16 00:01:00,
2013-05-15 21:07:00,49.0,48.0,-100.00,North,350,1.0,4.0,97,-99.99,,,0.09,0.000000,,2013-05-16 01:07:00,
2013-05-15 21:40:00,49.0,48.0,-100.00,North,350,1.0,4.0,97,-99.99,,,0.09,0.000000,,2013-05-16 01:40:00,
2013-05-15 21:50:00,49.0,48.0,-100.00,North,350,1.0,4.0,97,-99.99,,,0.09,0.000000,,2013-05-16 01:50:00,
2013-05-15 22:02:00,49.0,48.0,-100.00,North,350,1.0,4.0,97,-99.99,,,0.09,0.000000,,2013-05-16 02:02:00,
2013-05-15 22:07:00,49.0,48.0,-100.00,NE,37,1.0,3.0,98,0.01,,,0.10,0.000000,,2013-05-16 02:07:00,
2013-05-15 22:40:00,49.0,48.0,-100.00,NE,37,1.0,3.0,98,0.01,,,0.10,0.000000,,2013-05-16 02:40:00,
2013-05-15 22:49:00,49.0,48.0,-100.00,NE,37,1.0,3.0,98,0.01,,,0.10,0.000000,,2013-05-16 02:49:00,
2013-05-15 22:56:00,49.0,48.0,-100.00,NE,37,1.0,3.0,98,0.01,,,0.10,0.000000,,2013-05-16 02:56:00,
2013-05-15 23:47:00,49.0,49.0,-100.00,North,3,1.0,3.0,99,0.01,,,0.11,0.000000,,2013-05-16 03:47:00,
2013-05-15 23:58:00,49.0,49.0,-100.00,North,3,1.0,3.0,99,0.01,,,0.11,0.000000,,2013-05-16 03:58:00,